When you browse on this site, cookies collect data to enhance your experience and personalize the content and advertising you see.
Visit our Privacy Policy to learn more. By continuing to use the site, you agree to this use of cookies and data.
  • In Österreich
  • Länderverzeichnis
  • Für 7 Tage
  • Wassertemperatur
  • Wetterkarte
  • News
  • Widgets
  • user-avatar
    Anmelden

    Stündliche Wetter Makuni

    Heute, 15 Dezember, Sonntag

    Zeit Temperatur Niederschläge Wind Luftdruck Luftfeuchtigkeit
    00:00 -1°C° 0 mm 4 m/S 740 mmHg 87%
    01:00 -1°C° 0 mm 4 m/S 740 mmHg 87%
    02:00 -2°C° 0 mm 4 m/S 740 mmHg 87%
    03:00 -2°C° 0.2 mm 4 m/S 739 mmHg 90%
    04:00 -1°C° 0.2 mm 4 m/S 738 mmHg 92%
    05:00 -1°C° 0.2 mm 4 m/S 738 mmHg 95%
    06:00 -1°C° 0.2 mm 4 m/S 738 mmHg 95%
    07:00 0°C° 0.2 mm 4 m/S 737 mmHg 95%
    08:00 0°C° 0.2 mm 4 m/S 737 mmHg 95%
    09:00 +1°C° 0.7 mm 4 m/S 737 mmHg 95%
    10:00 +1°C° 0.7 mm 4 m/S 736 mmHg 95%
    11:00 +1°C° 0.7 mm 4 m/S 736 mmHg 95%
    12:00 +1°C° 0.5 mm 4 m/S 736 mmHg 95%
    13:00 +1°C° 0.5 mm 4 m/S 736 mmHg 95%
    14:00 +1°C° 0.5 mm 4 m/S 736 mmHg 95%
    15:00 +1°C° 0 mm 4 m/S 737 mmHg 94%
    16:00 0°C° 0 mm 4 m/S 737 mmHg 94%
    17:00 0°C° 0 mm 4 m/S 738 mmHg 93%
    18:00 0°C° 0 mm 4 m/S 738 mmHg 91%
    19:00 0°C° 0 mm 4 m/S 739 mmHg 90%
    20:00 0°C° 0 mm 4 m/S 739 mmHg 88%
    21:00 0°C° 0 mm 4 m/S 739 mmHg 90%
    22:00 0°C° 0 mm 3 m/S 740 mmHg 91%
    23:00 -1°C° 0 mm 3 m/S 740 mmHg 93%

    Morgen, 16 Dezember, Montag

    Zeit Temperatur Niederschläge Wind Luftdruck Luftfeuchtigkeit
    00:00 0°C° 0 mm 3 m/S 740 mmHg 92%
    01:00 0°C° 0 mm 3 m/S 740 mmHg 91%
    02:00 -1°C° 0 mm 4 m/S 740 mmHg 90%
    03:00 -1°C° 0.1 mm 4 m/S 740 mmHg 91%
    04:00 0°C° 0.1 mm 4 m/S 740 mmHg 93%
    05:00 0°C° 0.1 mm 4 m/S 739 mmHg 94%
    06:00 0°C° 0 mm 4 m/S 739 mmHg 93%
    07:00 +1°C° 0 mm 4 m/S 740 mmHg 91%
    08:00 +1°C° 0 mm 4 m/S 740 mmHg 90%
    09:00 +1°C° 0 mm 5 m/S 740 mmHg 87%
    10:00 +1°C° 0 mm 5 m/S 740 mmHg 85%
    11:00 +1°C° 0 mm 6 m/S 740 mmHg 83%
    12:00 +1°C° 0.1 mm 6 m/S 740 mmHg 84%
    13:00 +1°C° 0.1 mm 6 m/S 740 mmHg 86%
    14:00 0°C° 0.1 mm 7 m/S 740 mmHg 88%
    15:00 +1°C° 0 mm 6 m/S 741 mmHg 83%
    16:00 +1°C° 0 mm 6 m/S 742 mmHg 78%
    17:00 +1°C° 0 mm 6 m/S 743 mmHg 73%
    18:00 +1°C° 0 mm 5 m/S 743 mmHg 75%
    19:00 +1°C° 0 mm 5 m/S 744 mmHg 76%
    20:00 +1°C° 0 mm 4 m/S 745 mmHg 77%
    21:00 +1°C° 0 mm 4 m/S 745 mmHg 82%
    22:00 +1°C° 0 mm 3 m/S 746 mmHg 86%
    23:00 +1°C° 0 mm 3 m/S 746 mmHg 91%

    übermorgen, 17 Dezember, Dienstag

    Zeit Temperatur Niederschläge Wind Luftdruck Luftfeuchtigkeit
    00:00 0°C° 0 mm 3 m/S 746 mmHg 92%
    01:00 0°C° 0 mm 3 m/S 747 mmHg 92%
    02:00 0°C° 0 mm 3 m/S 747 mmHg 93%
    03:00 0°C° 0 mm 3 m/S 747 mmHg 91%
    04:00 0°C° 0 mm 3 m/S 746 mmHg 89%
    05:00 0°C° 0 mm 3 m/S 746 mmHg 88%
    06:00 0°C° 0.1 mm 3 m/S 746 mmHg 87%
    07:00 0°C° 0.1 mm 3 m/S 745 mmHg 87%
    08:00 +1°C° 0.1 mm 3 m/S 745 mmHg 86%
    09:00 0°C° 0.6 mm 4 m/S 745 mmHg 88%
    10:00 +1°C° 0.6 mm 4 m/S 745 mmHg 91%
    11:00 +1°C° 0.6 mm 4 m/S 744 mmHg 93%
    12:00 +1°C° 0.6 mm 4 m/S 744 mmHg 94%
    13:00 +3°C° 0.6 mm 4 m/S 744 mmHg 94%
    14:00 +3°C° 0.6 mm 4 m/S 743 mmHg 95%
    15:00 +3°C° 0.3 mm 3 m/S 744 mmHg 95%
    16:00 +3°C° 0.3 mm 3 m/S 744 mmHg 95%
    17:00 +3°C° 0.3 mm 3 m/S 744 mmHg 95%
    18:00 +3°C° 0.2 mm 3 m/S 744 mmHg 95%
    19:00 +4°C° 0.2 mm 2 m/S 744 mmHg 96%
    20:00 +4°C° 0.2 mm 2 m/S 745 mmHg 96%
    21:00 +3°C° 0 mm 2 m/S 745 mmHg 97%
    22:00 +3°C° 0 mm 2 m/S 745 mmHg 97%
    23:00 +4°C° 0 mm 1 m/S 745 mmHg 97%

    18 Dezember, Mittwoch

    Zeit Temperatur Niederschläge Wind Luftdruck Luftfeuchtigkeit
    00:00 +4°C° 0 mm 1 m/S 745 mmHg 97%
    01:00 +4°C° 0 mm 1 m/S 745 mmHg 98%
    02:00 +4°C° 0 mm 1 m/S 745 mmHg 98%
    03:00 +4°C° 0 mm 1 m/S 745 mmHg 98%
    04:00 +3°C° 0 mm 2 m/S 745 mmHg 98%
    05:00 +3°C° 0 mm 2 m/S 745 mmHg 97%
    06:00 +3°C° 0 mm 2 m/S 745 mmHg 97%
    07:00 +3°C° 0 mm 2 m/S 744 mmHg 96%
    08:00 +3°C° 0 mm 2 m/S 744 mmHg 96%
    09:00 +2°C° 0 mm 3 m/S 744 mmHg 95%
    10:00 +2°C° 0 mm 3 m/S 744 mmHg 93%
    11:00 +3°C° 0 mm 3 m/S 744 mmHg 92%
    12:00 +3°C° 0 mm 3 m/S 744 mmHg 92%
    13:00 +3°C° 0 mm 3 m/S 743 mmHg 91%
    14:00 +3°C° 0 mm 3 m/S 743 mmHg 91%
    15:00 +3°C° 0 mm 3 m/S 743 mmHg 91%
    16:00 +3°C° 0 mm 3 m/S 743 mmHg 92%
    17:00 +3°C° 0 mm 3 m/S 743 mmHg 92%
    18:00 +3°C° 0 mm 3 m/S 743 mmHg 93%
    19:00 +3°C° 0 mm 3 m/S 742 mmHg 93%
    20:00 +3°C° 0 mm 4 m/S 742 mmHg 93%
    21:00 +3°C° 0 mm 4 m/S 742 mmHg 92%
    22:00 +3°C° 0 mm 4 m/S 742 mmHg 92%
    23:00 +3°C° 0 mm 4 m/S 742 mmHg 92%

    19 Dezember, Donnerstag

    Zeit Temperatur Niederschläge Wind Luftdruck Luftfeuchtigkeit
    00:00 +3°C° 0 mm 4 m/S 741 mmHg 91%
    01:00 +3°C° 0 mm 4 m/S 741 mmHg 91%
    02:00 +3°C° 0 mm 4 m/S 741 mmHg 91%
    03:00 +3°C° 0 mm 5 m/S 741 mmHg 90%
    04:00 +3°C° 0 mm 5 m/S 741 mmHg 88%
    05:00 +3°C° 0 mm 5 m/S 741 mmHg 86%
    06:00 +4°C° 0 mm 4 m/S 742 mmHg 85%
    07:00 +4°C° 0 mm 4 m/S 742 mmHg 84%
    08:00 +4°C° 0 mm 4 m/S 742 mmHg 83%
    09:00 +3°C° 0 mm 4 m/S 743 mmHg 81%
    10:00 +3°C° 0 mm 4 m/S 743 mmHg 79%
    11:00 +2°C° 0 mm 3 m/S 744 mmHg 77%
    12:00 +2°C° 0 mm 3 m/S 744 mmHg 78%
    13:00 +2°C° 0 mm 3 m/S 744 mmHg 78%
    14:00 +3°C° 0 mm 2 m/S 744 mmHg 78%
    15:00 +2°C° 0 mm 2 m/S 745 mmHg 81%
    16:00 +2°C° 0 mm 2 m/S 745 mmHg 83%
    17:00 +1°C° 0 mm 2 m/S 745 mmHg 86%
    18:00 +1°C° 0 mm 2 m/S 745 mmHg 87%
    19:00 -1°C° 0 mm 2 m/S 746 mmHg 89%
    20:00 -1°C° 0 mm 2 m/S 746 mmHg 90%
    21:00 -1°C° 0 mm 2 m/S 746 mmHg 88%
    22:00 -1°C° 0 mm 2 m/S 746 mmHg 87%
    23:00 +1°C° 0 mm 2 m/S 746 mmHg 85%

    20 Dezember, Freitag

    Zeit Temperatur Niederschläge Wind Luftdruck Luftfeuchtigkeit
    00:00 +1°C° 0 mm 2 m/S 746 mmHg 83%
    01:00 +1°C° 0 mm 2 m/S 747 mmHg 82%
    02:00 +1°C° 0 mm 2 m/S 747 mmHg 81%
    03:00 +1°C° 0 mm 1 m/S 747 mmHg 83%
    04:00 +1°C° 0 mm 1 m/S 747 mmHg 84%
    05:00 0°C° 0 mm 1 m/S 747 mmHg 86%
    06:00 0°C° 0 mm 1 m/S 747 mmHg 87%
    07:00 0°C° 0 mm 1 m/S 747 mmHg 88%
    08:00 -1°C° 0 mm 1 m/S 747 mmHg 90%
    09:00 0°C° 0 mm 1 m/S 747 mmHg 87%
    10:00 0°C° 0 mm 1 m/S 748 mmHg 85%
    11:00 +1°C° 0 mm 1 m/S 748 mmHg 82%
    12:00 +1°C° 0 mm 1 m/S 748 mmHg 82%
    13:00 +1°C° 0 mm 1 m/S 748 mmHg 82%
    14:00 +1°C° 0 mm 1 m/S 747 mmHg 82%
    15:00 0°C° 0 mm 1 m/S 748 mmHg 84%
    16:00 0°C° 0 mm 1 m/S 748 mmHg 87%
    17:00 -1°C° 0 mm 1 m/S 748 mmHg 90%
    18:00 -1°C° 0 mm 1 m/S 748 mmHg 90%
    19:00 -1°C° 0 mm 1 m/S 748 mmHg 90%
    20:00 -1°C° 0 mm 1 m/S 748 mmHg 90%
    21:00 -1°C° 0 mm 1 m/S 748 mmHg 91%
    22:00 -1°C° 0 mm 1 m/S 748 mmHg 92%
    23:00 -1°C° 0 mm 1 m/S 748 mmHg 93%
    Mehr zeigen